KF5FGL Weather Reports


time (UTC)temp
F
wind
direction
speed
knots
gust
knots
rain 1hr
in
rain 24hr
in
rain mn
in
humidity
%
barometer
mb
20260506144508 75 75 0.0 2.6 0.00 0.00 0.00 85 1008.5
20260506143029 75 112 0.0 2.6 0.00 0.00 0.00 86 1008.2
20260506141517 75 227 0.0 2.6 0.00 0.00 0.00 86 1007.9
20260506140010 75 141 0.0 2.6 0.00 0.00 0.00 85 1007.7
20260506134522 75 103 0.9 3.5 0.00 0.00 0.00 85 1007.4
20260506133008 74 133 1.7 4.3 0.00 0.00 0.00 85 1007.1
20260506131529 74 119 1.7 3.5 0.00 0.00 0.00 85 1007.1
20260506130021 74 195 0.9 3.5 0.00 0.00 0.00 85 1007.0
20260506124507 74 133 0.9 3.5 0.00 0.00 0.00 85 1007.1
20260506123025 74 130 0.0 3.5 0.00 0.00 0.00 86 1007.1
20260506121511 74 268 0.0 1.7 0.00 0.00 0.00 86 1006.9
20260506120029 74 187 0.0 3.5 0.00 0.00 0.00 86 1006.9
20260506114521 74 145 0.0 3.5 0.00 0.00 0.00 86 1006.8
20260506113006 75 71 0.9 3.5 0.00 0.00 0.00 86 1006.8
20260506111524 75 171 0.0 0.9 0.00 0.00 0.00 86 1006.8
20260506110012 75 173 0.0 1.7 0.00 0.00 0.00 86 1006.8
20260506104636 75 173 0.0 2.6 0.00 0.00 0.00 86 1006.6
20260506103021 76 141 0.0 3.5 0.00 0.00 0.00 86 1006.6
20260506101510 76 181 0.9 3.5 0.00 0.00 0.00 86 1006.5
20260506100039 75 172 0.9 4.3 0.00 0.00 0.00 86 1006.5
20260506094518 75 198 0.0 4.3 0.00 0.00 0.00 86 1006.4
20260506093008 75 191 0.0 3.5 0.00 0.00 0.00 86 1006.3
20260506091529 77 146 0.0 5.2 0.00 0.00 0.00 85 1006.4
20260506090015 76 144 1.7 5.2 0.00 0.00 0.00 86 1006.4
20260506084503 76 189 0.0 4.3 0.00 0.00 0.00 86 1006.5
20260506083035 76 166 1.7 6.1 0.00 0.00 0.00 86 1006.4
20260506081511 76 176 1.7 3.5 0.00 0.00 0.00 85 1006.4
20260506073005 76 163 0.0 5.2 0.00 0.00 0.00 86 1006.9
20260506071525 76 164 0.9 4.3 0.00 0.00 0.00 86 1007.0
20260506061507 77 108 1.7 7.0 0.00 0.00 0.00 85 1007.0
20260506044533 77 183 1.7 5.2 0.00 0.00 0.00 85 1007.0
20260506043017 78 115 0.9 7.0 0.00 0.00 0.00 85 1006.9
20260506041506 77 135 1.7 7.0 0.00 0.00 0.00 85 1006.9
20260506040040 78 152 0.9 2.6 0.00 0.00 0.00 84 1006.7
20260506034514 78 104 1.7 6.1 0.00 0.00 0.00 84 1006.4
20260506033004 77 153 1.7 7.0 0.00 0.00 0.00 85 1006.2
20260506031524 78 111 0.9 7.8 0.00 0.00 0.00 84 1006.2
20260506030013 80 173 0.9 5.2 0.00 0.00 0.00 83 1005.9
20260506024540 79 125 2.6 7.8 0.00 0.00 0.00 83 1005.7
20260506023021 81 117 1.7 7.0 0.00 0.00 0.00 80 1005.6
20260506021514 82 140 0.0 7.8 0.00 0.00 0.00 79 1005.5
20260506020031 83 113 1.7 4.3 0.00 0.00 0.00 77 1005.1
20260506014524 83 141 0.9 7.8 0.00 0.00 0.00 77 1005.0
20260506013008 82 117 1.7 7.0 0.00 0.00 0.00 78 1004.8
20260506011530 82 119 1.7 4.3 0.00 0.00 0.00 76 1004.6
20260506010016 83 77 0.9 4.3 0.00 0.00 0.00 75 1004.3
20260506004508 84 101 0.9 5.2 0.00 0.00 0.00 74 1004.3
20260506003026 86 117 1.7 7.0 0.00 0.00 0.00 70 1004.2
20260506001515 84 162 0.0 4.3 0.00 0.00 0.00 73 1004.2
20260506000110 85 127 0.9 4.3 0.00 0.00 0.00 72 1004.0
20260505234521 87 131 0.9 6.1 0.00 0.00 0.00 69 1003.9
20260505233010 85 139 0.9 3.5 0.00 0.00 0.00 69 1003.9
20260505231530 87 128 0.0 7.0 0.00 0.00 0.00 68 1003.8
20260505230017 89 177 0.9 6.1 0.00 0.00 0.00 66 1003.9
20260505224504 88 112 1.7 6.1 0.00 0.00 0.00 66 1003.7
20260505223024 87 180 0.9 4.3 0.00 0.00 0.00 66 1003.9
20260505221511 87 125 2.6 7.0 0.00 0.00 0.00 65 1004.0
20260505214518 87 175 0.9 6.1 0.00 0.00 0.00 67 1004.3
20260505213006 87 151 1.7 6.1 0.00 0.00 0.00 66 1004.6
20260505211535 85 162 1.7 5.2 0.00 0.00 0.00 68 1004.9
20260505210012 86 137 2.6 7.8 0.00 0.00 0.00 67 1005.0
20260505204528 85 151 3.5 7.8 0.00 0.00 0.00 69 1005.2
20260505203013 84 205 2.6 7.8 0.00 0.00 0.00 70 1005.6
20260505201505 84 208 1.7 6.1 0.00 0.00 0.00 71 1005.8
20260505200020 85 173 1.7 7.0 0.00 0.00 0.00 69 1005.9
20260505194509 84 152 0.9 5.2 0.00 0.00 0.00 71 1006.1
20260505193026 84 122 2.6 6.1 0.00 0.00 0.00 71 1006.2
20260505191513 84 180 1.7 5.2 0.00 0.00 0.00 72 1006.4
20260505190030 82 117 1.7 6.1 0.00 0.00 0.00 74 1006.8
20260505184525 81 146 1.7 9.6 0.00 0.00 0.00 75 1006.9
20260505183005 81 177 1.7 6.1 0.00 0.00 0.00 77 1007.2
20260505181524 80 181 2.6 6.1 0.00 0.00 0.00 78 1007.1
20260505180012 80 227 0.9 11.3 0.00 0.00 0.00 79 1007.2
20260505174531 80 193 1.7 5.2 0.00 0.00 0.00 78 1007.3
20260505173017 78 256 2.6 6.1 0.00 0.00 0.00 81 1007.6
20260505171506 78 221 1.7 7.0 0.00 0.00 0.00 82 1007.5
20260505170034 77 176 1.7 6.1 0.00 0.00 0.00 83 1007.5
20260505164512 77 186 0.9 9.6 0.00 0.00 0.00 83 1007.6
20260505163033 76 191 2.6 8.7 0.00 0.00 0.00 85 1007.6
20260505161516 75 194 1.7 9.6 0.00 0.00 0.00 85 1007.6
20260505153009 73 197 0.9 6.1 0.00 0.00 0.00 86 1007.7
20260505151534 73 215 1.7 7.0 0.00 0.00 0.00 86 1007.6